Showing default

ION SCV-020, 64545

Orbit data source: Space-Track

ION SCV-020, 64545 is a payload satellite owned by D-ORBIT (IT) in SSO that was launched on Mon, 23 Jun 2025 UTC via an FALCON 9 launch vehicle from the Air Force Western Test Range (AFWTR). Payload-class satellites include a variety of spacecraft equipped with specific instruments for various scientific and technological missions. These include communications satellites like Starlink; space stations such as the ISS; scientific satellites like the Hubble; Earth observation satellites from companies like Planet Labs, Umbra, and HawkEye 360; GPS; miniature CubeSats for education and research; and military/defense satellites.

Loading next visibility...
Identifier
64545, 2025-135T
Orbit
SSO
Country
Flag of ITIT
Related business
Manufacturer
D-ORBIT
Mission
Operational Commercial Technology
Bus & Motor
ION-SC, PM200
Mass
220 kg wet, 150 kg dry
Launch date (UTC)
2025-06-23 (9 months ago)
Launch vehicle
FALCON 9
Launch site
Air Force Western Test Range (AFWTR)
Object type
Payload
Rocket body
Debris
Shape & HBR
Box, 0.2 m
Radar Cross Section
0.240 m², Medium (>0.1 m² and < 1m²)

Expand to show TLE details & history
Last TLE update: 1 day ago

TLE from 1 day ago
0 ION SCV-020
1 64545U 25135T   26071.27746575  .00005034  00000-0  23365-3 0  9993
2 64545  97.4577 187.2365 0002992 134.0678 226.0804 15.20479052 40122
Epoch: 2026-03-12T06:39Z
TLE epoch observation values (Epoch: 2026-03-12T06:39:33.040Z)
Latitude
-0.00004°
Longitude
-82.58082°
Altitude
508.913 km
Speed
7.609 km/s
True Right ascension
12h 28m 56s
True Declination
0° 00' 00"
Sunlit
Object was in full shadow at epoch
Visualization orbit readout
Latitude
Unknown
Longitude
Unknown
Altitude
Unknown
Speed
Unknown
Apparent Right ascension
Unknown
Apparent Declination
Unknown
Sunlit
N/A
Visualization observer readout
Local Sidereal Time
11:57:16
Azimuth
Unknown
Elevation
Unknown
Doppler factor
Unknown
Orbital elements
Apogee altitude
503.42 km
Perigee altitude
499.304 km
Semi-major axis
6,879.499 km
Eccentricity
0.0003
Inclination
97.4577°
RAAN
187.2365°
Arg. of periapsis
134.0678°
True anomaly
226.05571°
Mean anomaly
226.0804°
Eccentric anomaly
226.06805°
Mean motion
3.80371 °/min
Orbital period
94.64 mins
BSTAR
0.00023365
Loading maneuver chart data...
Computing Atmospheric mass density...
Loading historical data...
Loading historical data...
Loading historical data...
Loading historical data...
Loading historical data...
Loading historical data...
Loading historical data...

Documentation

Showing up to 5 results
|